Weather History for KTHA - January, 2013

Change the Weather History Date:

Sunday, January 6, 2013

  Actual Average (KBNA) Record (KBNA)
Temperature  
Mean Temperature 37 °F 38 °F  
Max Temperature 48 °F 47 °F 74 °F (1946)
Min Temperature 26 °F 29 °F -10 °F (1884)
Degree Days  
Heating Degree Days 28    
Month to date heating degree days  
Since 1 July heating degree days  
Cooling Degree Days 0    
Month to date cooling degree days  
Year to date cooling degree days  
Moisture  
Dew Point 33 °F    
Average Humidity 78    
Maximum Humidity 93    
Minimum Humidity 57    
Precipitation  
Precipitation 0.00 in 0.12 in 3.08 in (1913)
Month to date precipitation 0.70  
Year to date precipitation 0.70  
Snow  
Snow 0.00 in 0.10 in 4.00 in (1977)
Month to date snowfall 0.4  
Since 1 July snowfall 0.9  
Snow Depth -    
Sea Level Pressure  
Sea Level Pressure 30.23 in    
Wind  
Wind Speed 6 mph (West)    
Max Wind Speed 15 mph    
Max Gust Speed -    
Visibility 10 miles    
Events      
T = Trace of Precipitation, MM = Missing Value Source: NWS Daily Summary

Daily Weather History Graph

Daily Weather History Graph

Search for Another Location

Airport or City:

Trip Planner

Search our weather history database for the weather conditions in past years. The results will help you decide how hot, cold, wet, or windy it might be!

Date:

Astronomy

Jan. 06, 2013 Rise Set
Actual Time 6:54 AM CST 4:47 PM CST
Civil Twilight 6:26 AM CST 5:15 PM CST
Nautical Twilight 5:54 AM CST 5:47 PM CST
Astronomical Twilight 5:24 AM CST 6:18 PM CST
Moon 1:13 AM CST (1/6) 12:10 PM CST (1/6)
Length of Visible Light 10h 49m
Length of Day
9h 53m
Waning Crescent, 33% of the Moon is Illuminated
Jan 6
Waning Crescent
Jan 11
New
Jan 18
First Quarter
Jan 26
Full
Feb 3
Last Quarter

Hourly Weather History & Observations

Time (CST) Temp. Windchill Dew Point Humidity Pressure Visibility Wind Dir Wind Speed Gust Speed Precip Events Conditions
12:15 AM 37.4 °F 32.1 °F 35.6 °F 93% 30.24 in 10.0 mi SW 6.9 mph - N/A   Overcast
12:35 AM 37.4 °F 33.8 °F 35.6 °F 93% 30.24 in 10.0 mi SW 4.6 mph - N/A   Overcast
12:55 AM 37.4 °F 33.8 °F 35.6 °F 93% 30.24 in 10.0 mi Variable 4.6 mph - N/A   Overcast
1:35 AM 37.4 °F 33.8 °F 35.6 °F 93% 30.24 in 10.0 mi SSW 4.6 mph - N/A   Overcast
1:55 AM 37.4 °F 32.8 °F 35.6 °F 93% 30.24 in 8.0 mi SW 5.8 mph - N/A   Overcast
2:15 AM 37.4 °F 34.9 °F 35.6 °F 93% 30.23 in 8.0 mi SW 3.5 mph - N/A   Overcast
2:35 AM 37.4 °F 33.8 °F 35.6 °F 93% 30.23 in 9.0 mi SW 4.6 mph - N/A   Overcast
2:55 AM 37.4 °F 34.9 °F 35.6 °F 93% 30.22 in 10.0 mi WSW 3.5 mph - N/A   Overcast
3:15 AM 37.4 °F 33.8 °F 35.6 °F 93% 30.22 in 10.0 mi SW 4.6 mph - N/A   Overcast
3:35 AM 37.4 °F 32.8 °F 35.6 °F 93% 30.22 in 10.0 mi SW 5.8 mph - N/A   Overcast
3:55 AM 37.4 °F 32.8 °F 35.6 °F 93% 30.21 in 10.0 mi SW 5.8 mph - N/A   Overcast
4:15 AM 37.4 °F 33.8 °F 35.6 °F 93% 30.20 in 10.0 mi SW 4.6 mph - N/A   Overcast
4:35 AM 37.4 °F 34.9 °F 35.6 °F 93% 30.20 in 10.0 mi WSW 3.5 mph - N/A   Overcast
4:55 AM 37.4 °F 33.8 °F 35.6 °F 93% 30.20 in 10.0 mi SW 4.6 mph - N/A   Overcast
5:35 AM 37.4 °F 34.9 °F 35.6 °F 93% 30.21 in 10.0 mi SW 3.5 mph - N/A   Overcast
5:55 AM 37.4 °F 34.9 °F 35.6 °F 93% 30.22 in 10.0 mi SW 3.5 mph - N/A   Overcast
6:15 AM 37.4 °F 34.9 °F 35.6 °F 93% 30.22 in 10.0 mi SW 3.5 mph - N/A   Overcast
6:35 AM 37.4 °F 34.9 °F 35.6 °F 93% 30.22 in 10.0 mi SW 3.5 mph - N/A   Overcast
6:55 AM 37.4 °F 32.8 °F 35.6 °F 93% 30.23 in 10.0 mi SW 5.8 mph - N/A   Overcast
7:15 AM 37.4 °F 32.8 °F 35.6 °F 93% 30.23 in 10.0 mi SW 5.8 mph - N/A   Overcast
7:35 AM 37.4 °F 33.8 °F 35.6 °F 93% 30.23 in 10.0 mi SW 4.6 mph - N/A   Overcast
7:55 AM 37.4 °F 32.8 °F 35.6 °F 93% 30.23 in 10.0 mi SSW 5.8 mph - N/A   Overcast
8:15 AM 37.4 °F 34.9 °F 35.6 °F 93% 30.23 in 10.0 mi SW 3.5 mph - N/A   Overcast
8:35 AM 37.4 °F 32.8 °F 35.6 °F 93% 30.24 in 10.0 mi SW 5.8 mph - N/A   Overcast
8:55 AM 39.2 °F 35.0 °F 35.6 °F 87% 30.24 in 10.0 mi SSW 5.8 mph - N/A   Overcast
9:15 AM 39.2 °F 35.0 °F 35.6 °F 87% 30.24 in 10.0 mi SW 5.8 mph - N/A   Overcast
9:35 AM 39.2 °F 34.2 °F 35.6 °F 87% 30.24 in 10.0 mi WSW 6.9 mph - N/A   Overcast
9:55 AM 41.0 °F 36.4 °F 35.6 °F 81% 30.24 in 10.0 mi SW 6.9 mph - N/A   Unknown
10:15 AM 42.8 °F 38.6 °F 35.6 °F 76% 30.23 in 10.0 mi SW 6.9 mph - N/A   Unknown
10:35 AM 44.6 °F 43.1 °F 33.8 °F 66% 30.22 in 10.0 mi Variable 3.5 mph - N/A   Unknown
10:55 AM 42.8 °F 38.0 °F 33.8 °F 70% 30.23 in 10.0 mi WSW 8.1 mph - N/A   Unknown
11:15 AM 42.8 °F 37.5 °F 33.8 °F 70% 30.22 in 10.0 mi West 9.2 mph - N/A   Unknown
11:35 AM 44.6 °F 40.7 °F 33.8 °F 66% 30.20 in 10.0 mi SW 6.9 mph - N/A   Unknown
11:55 AM 44.6 °F 41.4 °F 33.8 °F 66% 30.20 in 10.0 mi WSW 5.8 mph - N/A   Overcast
12:15 PM 44.6 °F 41.4 °F 33.8 °F 66% 30.19 in 10.0 mi West 5.8 mph - N/A   Overcast
12:35 PM 44.6 °F 38.4 °F 33.8 °F 66% 30.19 in 10.0 mi WSW 12.7 mph - N/A   Overcast
12:55 PM 46.4 °F 41.5 °F 33.8 °F 62% 30.18 in 10.0 mi SW 10.4 mph - N/A   Mostly Cloudy
1:15 PM 48.2 °F - 33.8 °F 58% 30.17 in 10.0 mi West 11.5 mph - N/A   Scattered Clouds
1:35 PM 48.2 °F - 33.8 °F 58% 30.17 in 10.0 mi WNW 9.2 mph - N/A   Scattered Clouds
1:55 PM 48.2 °F - 33.8 °F 58% 30.16 in 10.0 mi WSW 10.4 mph - N/A   Partly Cloudy
2:15 PM 48.2 °F - 33.8 °F 58% 30.16 in 10.0 mi West 11.5 mph - N/A   Clear
2:35 PM 48.2 °F - 33.8 °F 58% 30.17 in 10.0 mi WNW 8.1 mph - N/A   Clear
2:55 PM 48.2 °F - 33.8 °F 58% 30.17 in 10.0 mi WNW 12.7 mph - N/A   Clear
3:15 PM 48.2 °F - 33.8 °F 58% 30.18 in 10.0 mi West 11.5 mph - N/A   Clear
3:35 PM 46.4 °F 41.1 °F 32.0 °F 57% 30.19 in 10.0 mi WNW 11.5 mph - N/A   Clear
3:55 PM 46.4 °F 40.4 °F 32.0 °F 57% 30.20 in 10.0 mi NW 13.8 mph - N/A   Clear
4:15 PM 46.4 °F 41.5 °F 32.0 °F 57% 30.20 in 10.0 mi WNW 10.4 mph - N/A   Partly Cloudy
4:35 PM 44.6 °F 39.2 °F 30.2 °F 57% 30.21 in 10.0 mi NW 10.4 mph - N/A   Partly Cloudy
4:55 PM 42.8 °F 37.0 °F 30.2 °F 61% 30.22 in 10.0 mi NW 10.4 mph - N/A   Clear
5:15 PM 42.8 °F 37.5 °F 30.2 °F 61% 30.23 in 10.0 mi NW 9.2 mph - N/A   Clear
5:35 PM 41.0 °F 35.2 °F 28.4 °F 61% 30.24 in 10.0 mi NW 9.2 mph - N/A   Clear
5:55 PM 41.0 °F 35.2 °F 28.4 °F 61% 30.24 in 10.0 mi NNW 9.2 mph - N/A   Clear
6:15 PM 39.2 °F 33.0 °F 30.2 °F 70% 30.25 in 10.0 mi NNW 9.2 mph - N/A   Scattered Clouds
6:35 PM 39.2 °F 34.2 °F 30.2 °F 70% 30.26 in 10.0 mi NNW 6.9 mph - N/A   Overcast
6:55 PM 39.2 °F 35.0 °F 28.4 °F 65% 30.27 in 10.0 mi NNW 5.8 mph - N/A   Scattered Clouds
7:15 PM 37.4 °F 32.8 °F 28.4 °F 70% 30.27 in 10.0 mi NNW 5.8 mph - N/A   Clear
7:35 PM 37.4 °F 28.5 °F 28.4 °F 70% 30.28 in 10.0 mi North 15.0 mph - N/A   Clear
7:55 PM 37.4 °F 28.9 °F 30.2 °F 75% 30.29 in 10.0 mi North 13.8 mph - N/A   Clear
8:15 PM 37.4 °F 29.3 °F 30.2 °F 75% 30.30 in 10.0 mi North 12.7 mph - N/A   Clear
8:35 PM 35.6 °F 26.6 °F 28.4 °F 75% 30.30 in 10.0 mi North 13.8 mph - N/A   Clear
9:15 PM 33.8 °F 26.4 °F 26.6 °F 75% 30.33 in 10.0 mi North 9.2 mph - N/A   Clear
9:55 PM 32.0 °F 26.4 °F 26.6 °F 80% 30.35 in 10.0 mi NNE 5.8 mph - N/A   Scattered Clouds
10:15 PM 32.0 °F 26.4 °F 26.6 °F 80% 30.34 in 10.0 mi NNE 5.8 mph - N/A   Scattered Clouds
10:35 PM 30.2 °F 25.4 °F 26.6 °F 86% 30.34 in 10.0 mi NNE 4.6 mph - N/A   Clear
10:55 PM 28.4 °F 23.3 °F 24.8 °F 86% 30.34 in 10.0 mi NNW 4.6 mph - N/A   Clear
11:35 PM 26.6 °F 20.0 °F 24.8 °F 93% 30.34 in 10.0 mi North 5.8 mph - N/A   Clear
11:55 PM 26.6 °F 21.2 °F 23.0 °F 86% 30.34 in 10.0 mi North 4.6 mph - N/A   Clear